Location: D�derode
(51.8092°N, 10.1065°E)
Time: 18:25:16
(UTC+00:00)

Cosmos 1943 Rocket - Visible Passes

Search period start: 16 April 2021 00:00
Search period end: 26 April 2021 00:00
Orbit: 811 x 844 km, 71.0° (Epoch: 15 April)

Date Brightness Start Highest point End Pass type
(mag) Time Alt. Az. Time Alt. Az. Time Alt. Az.
16 Apr 3.4 03:03:45 10° S 03:09:01 42° ESE 03:14:18 10° NE visible
17 Apr 3.5 02:44:42 10° S 02:49:51 37° ESE 02:55:01 10° NE visible
18 Apr 3.6 02:25:41 10° S 02:30:41 33° ESE 02:35:42 10° NE visible
19 Apr 3.7 02:06:41 10° SSE 02:11:31 30° ESE 02:16:22 10° NE visible
20 Apr 3.9 01:47:44 10° SSE 01:52:22 27° ESE 01:57:02 10° NE visible
20 Apr 2.4 03:30:06 10° SW 03:35:44 64° NW 03:41:22 10° NNE visible
21 Apr 4.0 01:29:12 12° SSE 01:33:13 24° ESE 01:37:40 10° NE visible
21 Apr 2.3 03:10:49 10° SW 03:16:29 71° WNW 03:22:09 10° NNE visible
22 Apr 4.1 01:10:36 13° SE 01:14:05 22° ESE 01:18:16 10° NE visible
22 Apr 2.2 02:52:08 13° SW 02:57:14 78° WNW 03:02:55 10° NNE visible
23 Apr 4.2 00:51:58 13° SE 00:54:57 19° E 00:58:50 10° ENE visible
23 Apr 2.2 02:33:30 17° SSW 02:38:00 86° WNW 02:43:41 10° NNE visible
24 Apr 4.2 00:33:17 13° SE 00:35:49 17° E 00:39:21 10° ENE visible
24 Apr 2.2 02:14:49 21° SSW 02:18:46 87° ESE 02:24:27 10° NNE visible
25 Apr 4.3 00:14:34 13° ESE 00:16:42 15° E 00:19:50 10° ENE visible
25 Apr 2.2 01:56:05 25° SSW 01:59:33 79° ESE 02:05:13 10° NNE visible
